SV1KWZ-1 Weather Reports


time (UTC)temp
C
wind
direction
speed
KPH
gust
KPH
rain 1hr
cm
rain 24hr
cm
rain mn
cm
humidity
%
barometer
mb
20260902070903 32 61 9.7 22.5 0.00 0.00 0.00 26 1022.9
20260902070603 32 57 11.3 22.5 0.00 0.00 0.00 26 1022.9
20260902070303 32 56 9.7 24.1 0.00 0.00 0.00 26 1022.9
20260902070004 32 54 9.7 24.1 0.00 0.00 0.00 27 1022.8
20260902065704 32 60 9.7 24.1 0.00 0.00 0.00 26 1022.9
20260902065403 32 59 9.7 20.9 0.00 0.00 0.00 26 1022.8
20260902065317 32 58 9.7 20.9 0.00 0.00 0.00 26 1022.7
20260902064803 31 64 9.7 20.9 0.00 0.00 0.00 26 1022.6
20260902064719 31 65 9.7 22.5 0.00 0.00 0.00 26 1022.7
20260902064203 31 62 9.7 29.0 0.00 0.00 0.00 27 1022.5
20260902063903 31 63 9.7 29.0 0.00 0.00 0.00 26 1022.9
20260902063603 31 58 8.0 25.7 0.00 0.00 0.00 27 1022.8
20260902063303 31 61 6.4 16.1 0.00 0.00 0.00 27 1022.7
20260902063003 31 58 4.8 14.5 0.00 0.00 0.00 27 1022.7
20260902062704 31 57 6.4 14.5 0.00 0.00 0.00 28 1022.7
20260902062403 31 60 6.4 16.1 0.00 0.00 0.00 27 1022.6
20260902062104 31 58 6.4 17.7 0.00 0.00 0.00 28 1022.6
20260902061803 31 59 6.4 17.7 0.00 0.00 0.00 28 1022.5
20260902061632 31 63 6.4 17.7 0.00 0.00 0.00 28 1022.6
20260902060903 31 61 4.8 16.1 0.00 0.00 0.00 28 1022.9
20260902060603 31 64 3.2 12.9 0.00 0.00 0.00 28 1022.5
20260902060303 31 62 3.2 9.7 0.00 0.00 0.00 28 1022.5
20260902060003 31 59 3.2 9.7 0.00 0.00 0.00 29 1022.6
20260902055917 31 60 3.2 9.7 0.00 0.00 0.00 29 1022.8
20260902055403 31 82 3.2 6.4 0.00 0.00 0.00 31 1022.7
20260902055103 31 112 1.6 4.8 0.00 0.00 0.00 33 1022.8
20260902054803 31 135 1.6 4.8 0.00 0.00 0.00 33 1022.8
20260902054503 31 132 1.6 4.8 0.00 0.00 0.00 33 1022.8
20260902054203 31 148 0.0 1.6 0.00 0.00 0.00 33 1022.6
20260902054118 31 148 0.0 1.6 0.00 0.00 0.00 33 1022.8
20260902053818 31 148 0.0 1.6 0.00 0.00 0.00 34 1022.6
20260902053303 31 149 0.0 1.6 0.00 0.00 0.00 33 1022.6
20260902053004 30 151 0.0 1.6 0.00 0.00 0.00 35 1022.7
20260902052703 30 158 0.0 1.6 0.00 0.00 0.00 36 1022.6
20260902052404 30 153 0.0 1.6 0.00 0.00 0.00 36 1022.8
20260902052103 30 155 0.0 1.6 0.00 0.00 0.00 37 1022.8
20260902051803 30 200 1.6 3.2 0.00 0.00 0.00 37 1022.6
20260902051503 29 214 1.6 3.2 0.00 0.00 0.00 38 1022.8
20260902051203 28 233 1.6 3.2 0.00 0.00 0.00 39 1023.0
20260902050903 29 255 1.6 3.2 0.00 0.00 0.00 39 1022.5
20260902050817 28 304 1.6 3.2 0.00 0.00 0.00 39 1022.7
20260902050303 28 354 1.6 3.2 0.00 0.00 0.00 39 1022.8
20260902050006 28 349 1.6 3.2 0.00 0.00 0.00 40 1022.6
20260902045703 28 234 0.0 1.6 0.00 0.00 0.00 40 1022.6
20260902045403 28 233 0.0 1.6 0.00 0.00 0.00 41 1022.7
20260902045103 28 233 0.0 1.6 0.00 0.00 0.00 41 1022.6
20260902044803 28 233 0.0 1.6 0.00 0.00 0.00 41 1022.8
20260902044503 28 230 0.0 3.2 0.00 0.00 0.00 42 1022.9
20260902044203 28 220 1.6 3.2 0.00 0.00 0.00 42 1022.5
20260902043903 28 204 1.6 3.2 0.00 0.00 0.00 42 1022.5
20260902043603 28 135 0.0 3.2 0.00 0.00 0.00 42 1022.7
20260902043303 28 87 0.0 1.6 0.00 0.00 0.00 42 1022.7
20260902043003 28 64 1.6 1.6 0.00 0.00 0.00 42 1022.5
20260902042917 27 56 1.6 1.6 0.00 0.00 0.00 42 1022.5
20260902042403 27 33 0.0 1.6 0.00 0.00 0.00 44 1022.5
20260902042103 27 16 0.0 1.6 0.00 0.00 0.00 43 1022.5
20260902041803 27 3 0.0 1.6 0.00 0.00 0.00 44 1022.6
20260902041503 27 357 0.0 1.6 0.00 0.00 0.00 44 1022.4
20260902041203 27 330 0.0 1.6 0.00 0.00 0.00 44 1022.4
20260902040903 27 348 0.0 1.6 0.00 0.00 0.00 44 1022.6
20260902040603 27 334 0.0 1.6 0.00 0.00 0.00 44 1022.7
20260902040303 27 237 1.6 4.8 0.00 0.00 0.00 44 1022.7
20260902040003 27 241 1.6 4.8 0.00 0.00 0.00 44 1022.5
20260902035916 27 241 1.6 4.8 0.00 0.00 0.00 44 1022.4
20260902035403 27 248 0.0 4.8 0.00 0.00 0.00 44 1022.4
20260902035103 27 0 0.0 0.0 0.00 0.00 0.00 44 1022.4
20260902034803 27 0 0.0 0.0 0.00 0.00 0.00 43 1022.4
20260902034503 27 0 0.0 0.0 0.00 0.00 0.00 44 1022.2
20260902034417 27 0 0.0 0.0 0.00 0.00 0.00 43 1022.2
20260902034117 27 0 0.0 0.0 0.00 0.00 0.00 43 1022.3
20260902033603 27 0 0.0 0.0 0.00 0.00 0.00 44 1022.3
20260902033303 27 0 0.0 0.0 0.00 0.00 0.00 44 1022.2
20260902033003 27 232 0.0 3.2 0.00 0.00 0.00 43 1022.1
20260902032703 27 241 1.6 3.2 0.00 0.00 0.00 43 1022.3
20260902032403 27 241 1.6 3.2 0.00 0.00 0.00 43 1022.3
20260902032103 27 241 1.6 3.2 0.00 0.00 0.00 43 1022.2
20260902031803 27 340 0.0 1.6 0.00 0.00 0.00 42 1022.4
20260902031503 27 341 0.0 1.6 0.00 0.00 0.00 42 1022.2
20260902031203 27 341 0.0 1.6 0.00 0.00 0.00 42 1022.3
20260902030903 27 341 0.0 1.6 0.00 0.00 0.00 42 1022.4
20260902030817 27 341 0.0 1.6 0.00 0.00 0.00 42 1022.4
20260902030303 28 348 0.0 1.6 0.00 0.00 0.00 41 1022.1
20260902030004 28 36 0.0 1.6 0.00 0.00 0.00 42 1022.3
20260902025703 28 357 1.6 1.6 0.00 0.00 0.00 42 1021.9
20260902025403 28 25 1.6 1.6 0.00 0.00 0.00 41 1022.3
20260902025318 28 24 1.6 1.6 0.00 0.00 0.00 42 1021.9
20260902025017 28 359 1.6 1.6 0.00 0.00 0.00 43 1021.9
20260902024503 27 18 0.0 1.6 0.00 0.00 0.00 42 1022.0
20260902024203 28 10 1.6 3.2 0.00 0.00 0.00 42 1022.0
20260902024117 28 6 1.6 3.2 0.00 0.00 0.00 42 1022.0
20260902023603 28 336 1.6 4.8 0.00 0.00 0.00 42 1022.0
20260902023303 28 317 1.6 4.8 0.00 0.00 0.00 42 1022.1
20260902023003 28 314 1.6 4.8 0.00 0.00 0.00 42 1022.1
20260902022703 28 322 1.6 4.8 0.00 0.00 0.00 41 1022.0
20260902022618 28 320 1.6 4.8 0.00 0.00 0.00 41 1022.0
20260902022317 28 318 3.2 4.8 0.00 0.00 0.00 41 1022.2
20260902021803 28 301 1.6 4.8 0.00 0.00 0.00 40 1022.0
20260902021503 28 315 1.6 3.2 0.00 0.00 0.00 40 1022.4
20260902021203 28 325 1.6 4.8 0.00 0.00 0.00 40 1022.0
20260902020903 28 330 1.6 6.4 0.00 0.00 0.00 40 1022.1
20260902020603 28 332 3.2 6.4 0.00 0.00 0.00 39 1022.2
20260902020303 28 331 3.2 6.4 0.00 0.00 0.00 39 1022.0
20260902020218 28 332 3.2 6.4 0.00 0.00 0.00 39 1021.9
20260902015703 28 351 1.6 4.8 0.00 0.00 0.00 39 1022.4
20260902015403 28 356 1.6 4.8 0.00 0.00 0.00 39 1022.1
20260902015317 28 3 1.6 4.8 0.00 0.00 0.00 39 1022.3
20260902014803 28 1 1.6 4.8 0.00 0.00 0.00 39 1022.4
20260902014503 28 360 1.6 4.8 0.00 0.00 0.00 39 1021.9
20260902014203 28 354 1.6 6.4 0.00 0.00 0.00 41 1022.1
20260902014116 28 352 1.6 6.4 0.00 0.00 0.00 41 1022.4
20260902013603 28 334 0.0 6.4 0.00 0.00 0.00 41 1022.1
20260902013303 28 344 0.0 3.2 0.00 0.00 0.00 43 1022.1
20260902013003 28 10 0.0 3.2 0.00 0.00 0.00 43 1022.3
20260902012703 28 1 0.0 3.2 0.00 0.00 0.00 43 1022.3
20260902012403 28 338 1.6 3.2 0.00 0.00 0.00 42 1022.0
20260902012103 28 321 1.6 3.2 0.00 0.00 0.00 42 1022.2
20260902011803 28 313 1.6 3.2 0.00 0.00 0.00 41 1022.2
20260902011503 28 314 1.6 3.2 0.00 0.00 0.00 41 1022.2